User: anonymous   Login
Location: Kimberly
(42.5380°N, 114.3640°W)
Time: 03:26:33
(UTC-06:00)
Language:

N. Korean satellite - Orbit

View from above orbital plane
View from above orbital plane
View from above satellite
View from above satellite

Ground track
Ground track

The orbit data is extracted from the following two-line orbital elements,

1 39026U 12072A   18292.60352718 +.00001506 +00000-0 +58265-4 0  9998
2 39026 097.2112 298.7657 0037227 240.2138 119.5397 15.27122905324580
Epoch (UTC): 19 October 2018 14:29:04
Eccentricity: 0.0037227
inclination: 97.2112°
perigee height: 459 km
apogee height: 510 km
right ascension of ascending node: 298.7657°
argument of perigee: 240.2138°
revolutions per day: 15.27122905
mean anomaly at epoch: 119.5397°
orbit number at epoch: 32458

The dashed part of the orbit path shows where the satellite is in the earth's shadow,  

DLR